�������l�o���
Date,Time,MP-1(��Sv/h),MP-2(��Sv/h),MP-3(��Sv/h),MP-4(��Sv/h),MP-5(��Sv/h),MP-6(��Sv/h),MP-7(��Sv/h),����,����(m/s),���J
2018/05/13,00:00,0.312,0.196,0.321,0.308,0.302,0.159,0.098,�k,1.8,��
2018/05/13,00:10,0.311,0.197,0.321,0.306,0.300,0.161,0.098,�k,3.1,��
2018/05/13,00:20,0.313,0.197,0.321,0.308,0.303,0.160,0.098,�k,2.7,��
2018/05/13,00:30,0.311,0.197,0.322,0.305,0.299,0.161,0.097,�k�k��,1.9,��
2018/05/13,00:40,0.314,0.198,0.321,0.308,0.302,0.160,0.098,�k�k��,2.2,��
2018/05/13,00:50,0.311,0.197,0.322,0.308,0.300,0.160,0.098,�k,1.2,��
2018/05/13,01:00,0.312,0.198,0.320,0.307,0.301,0.160,0.098,�k�k��,1.5,��
2018/05/13,01:10,0.311,0.197,0.322,0.308,0.299,0.160,0.097,�k�k��,1.7,��
2018/05/13,01:20,0.312,0.197,0.321,0.306,0.301,0.160,0.098,�k,0.9,��
2018/05/13,01:30,0.312,0.198,0.321,0.306,0.301,0.160,0.098,�k��,0.9,��
2018/05/13,01:40,0.312,0.196,0.320,0.306,0.300,0.161,0.098,�k�k��,1.1,��
2018/05/13,01:50,0.313,0.196,0.320,0.307,0.304,0.160,0.099,�k��,0.8,��
2018/05/13,02:00,0.312,0.197,0.320,0.307,0.300,0.160,0.097,-,CALM,��
2018/05/13,02:10,0.312,0.196,0.320,0.306,0.302,0.160,0.098,���k��,1.7,��
2018/05/13,02:20,0.311,0.197,0.321,0.307,0.301,0.160,0.098,�k��,1.2,��
2018/05/13,02:30,0.314,0.197,0.320,0.307,0.302,0.160,0.099,���k��,0.7,��
2018/05/13,02:40,0.311,0.198,0.321,0.308,0.300,0.161,0.099,��,1.3,��
2018/05/13,02:50,0.313,0.196,0.320,0.305,0.303,0.159,0.098,��,2.6,��
2018/05/13,03:00,0.311,0.197,0.322,0.307,0.301,0.160,0.099,��쐼,2.6,��
2018/05/13,03:10,0.314,0.197,0.320,0.307,0.304,0.160,0.098,��쐼,2.7,��
2018/05/13,03:20,0.312,0.197,0.322,0.307,0.300,0.161,0.099,��,2.8,��
2018/05/13,03:30,0.313,0.198,0.321,0.308,0.304,0.160,0.098,��,2.3,��
2018/05/13,03:40,0.312,0.197,0.321,0.308,0.300,0.161,0.098,��,1.2,��
2018/05/13,03:50,0.313,0.199,0.323,0.308,0.303,0.160,0.099,��,1.0,��
2018/05/13,04:00,0.312,0.198,0.320,0.305,0.300,0.160,0.099,��,0.8,��
2018/05/13,04:10,0.313,0.198,0.323,0.308,0.304,0.161,0.100,��,1.6,��
2018/05/13,04:20,0.312,0.197,0.321,0.307,0.299,0.161,0.099,��,2.0,��
2018/05/13,04:30,0.311,0.199,0.323,0.308,0.304,0.161,0.099,��,0.8,��
2018/05/13,04:40,0.314,0.199,0.321,0.309,0.300,0.161,0.100,��쐼,0.7,��
2018/05/13,04:50,0.312,0.197,0.324,0.310,0.304,0.161,0.099,��쐼,3.0,��
2018/05/13,05:00,0.313,0.198,0.323,0.308,0.300,0.161,0.099,��쐼,3.6,��
2018/05/13,05:10,0.312,0.197,0.321,0.307,0.304,0.161,0.099,��쐼,2.8,��
2018/05/13,05:20,0.313,0.198,0.323,0.309,0.303,0.161,0.100,��쐼,3.1,��
2018/05/13,05:30,0.312,0.197,0.321,0.307,0.303,0.161,0.099,��,3.0,��
2018/05/13,05:40,0.313,0.198,0.322,0.309,0.303,0.160,0.100,��쐼,2.8,��
2018/05/13,05:50,0.313,0.197,0.322,0.308,0.304,0.161,0.099,��,3.3,��
2018/05/13,06:00,0.312,0.197,0.323,0.309,0.301,0.160,0.098,��쐼,3.5,��
2018/05/13,06:10,0.313,0.197,0.321,0.306,0.302,0.161,0.099,��쐼,4.1,��
2018/05/13,06:20,0.311,0.199,0.324,0.309,0.303,0.160,0.099,��쐼,5.0,��
2018/05/13,06:30,0.313,0.198,0.322,0.308,0.301,0.162,0.098,��,3.8,��
2018/05/13,06:40,0.311,0.198,0.322,0.308,0.303,0.160,0.098,��,3.0,�L
2018/05/13,06:50,0.314,0.198,0.322,0.309,0.301,0.161,0.099,-,CALM,�L
2018/05/13,07:00,0.311,0.198,0.320,0.307,0.301,0.160,0.099,��쐼,2.1,��
2018/05/13,07:10,0.313,0.198,0.323,0.307,0.302,0.161,0.098,��쐼,2.1,��
2018/05/13,07:20,0.310,0.197,0.319,0.307,0.301,0.159,0.098,��쐼,2.2,��
2018/05/13,07:30,0.312,0.196,0.322,0.306,0.300,0.160,0.097,��쐼,3.8,��
2018/05/13,07:40,0.310,0.195,0.320,0.307,0.298,0.160,0.097,��쐼,2.8,��
2018/05/13,07:50,0.310,0.196,0.321,0.307,0.302,0.159,0.097,��,1.8,��
2018/05/13,08:00,0.311,0.197,0.321,0.308,0.299,0.159,0.098,��쐼,1.7,��
2018/05/13,08:10,0.310,0.194,0.319,0.305,0.300,0.159,0.097,��,1.9,��
2018/05/13,08:20,0.312,0.196,0.320,0.307,0.302,0.159,0.096,��쐼,2.0,��
2018/05/13,08:30,0.309,0.196,0.318,0.305,0.298,0.158,0.096,��,3.9,��
2018/05/13,08:40,0.311,0.196,0.320,0.305,0.302,0.160,0.097,��,3.8,��
2018/05/13,08:50,0.310,0.196,0.318,0.305,0.299,0.160,0.096,��,2.9,��
2018/05/13,09:00,0.310,0.194,0.319,0.304,0.298,0.159,0.098,��,3.0,��
2018/05/13,09:10,0.310,0.197,0.319,0.307,0.302,0.161,0.096,��,3.2,��
2018/05/13,09:20,0.308,0.196,0.319,0.305,0.298,0.159,0.097,��,2.7,��
2018/05/13,09:30,0.312,0.196,0.320,0.304,0.296,0.159,0.097,��,3.1,��
2018/05/13,09:40,0.312,0.197,0.318,0.306,0.301,0.160,0.096,��,4.8,��
2018/05/13,09:50,0.308,0.195,0.321,0.305,0.299,0.158,0.097,��,4.1,��
2018/05/13,10:00,0.311,0.195,0.319,0.303,0.297,0.159,0.097,��,4.8,��
2018/05/13,10:10,0.310,0.196,0.319,0.307,0.302,0.159,0.096,��,2.6,��
2018/05/13,10:20,0.309,0.195,0.320,0.304,0.300,0.158,0.097,��,4.0,��
2018/05/13,10:30,0.313,0.197,0.318,0.306,0.297,0.159,0.096,��,3.8,��
2018/05/13,10:40,0.308,0.195,0.319,0.306,0.303,0.157,0.097,��,3.9,��
2018/05/13,10:50,0.311,0.197,0.320,0.304,0.300,0.159,0.097,��,4.9,��
2018/05/13,11:00,0.310,0.196,0.319,0.306,0.298,0.159,0.096,��,7.0,��
2018/05/13,11:10,0.308,0.195,0.321,0.303,0.302,0.158,0.097,��,6.4,��
2018/05/13,11:20,0.312,0.196,0.318,0.306,0.300,0.159,0.096,��,6.9,��
2018/05/13,11:30,0.309,0.196,0.321,0.306,0.298,0.158,0.096,��,8.2,��
2018/05/13,11:40,0.313,0.197,0.319,0.305,0.302,0.158,0.097,��,7.3,�L
2018/05/13,11:50,0.310,0.197,0.319,0.308,0.299,0.159,0.096,��,6.5,�L
2018/05/13,12:00,0.311,0.197,0.322,0.304,0.303,0.159,0.098,��,5.4,�L
2018/05/13,12:10,0.313,0.198,0.320,0.310,0.300,0.161,0.098,��,4.4,�L
2018/05/13,12:20,0.310,0.198,0.325,0.309,0.303,0.161,0.099,��,5.7,�L
2018/05/13,12:30,0.316,0.201,0.323,0.312,0.304,0.162,0.101,��,6.3,�L
2018/05/13,12:40,0.316,0.202,0.327,0.313,0.304,0.164,0.102,��쐼,6.6,�L
2018/05/13,12:50,0.319,0.203,0.326,0.313,0.307,0.165,0.102,��쐼,6.5,�L
2018/05/13,13:00,0.314,0.202,0.328,0.312,0.303,0.166,0.102,��쐼,6.2,�L
2018/05/13,13:10,0.317,0.202,0.324,0.311,0.306,0.165,0.101,��쐼,5.5,�L
2018/05/13,13:20,0.315,0.200,0.324,0.311,0.302,0.164,0.100,��쐼,5.7,�L
2018/05/13,13:30,0.313,0.201,0.324,0.309,0.304,0.163,0.101,��,5.8,�L
2018/05/13,13:40,0.315,0.200,0.322,0.311,0.304,0.163,0.101,��,5.9,�L
2018/05/13,13:50,0.311,0.198,0.324,0.307,0.300,0.162,0.100,��,6.3,��
2018/05/13,14:00,0.313,0.199,0.321,0.309,0.303,0.161,0.099,��,7.9,��
2018/05/13,14:10,0.313,0.196,0.324,0.307,0.300,0.161,0.100,��,9.3,�L
2018/05/13,14:20,0.310,0.198,0.320,0.308,0.302,0.161,0.099,��,7.8,�L
2018/05/13,14:30,0.313,0.198,0.323,0.308,0.304,0.163,0.099,��,6.9,�L
2018/05/13,14:40,0.310,0.199,0.323,0.306,0.301,0.162,0.099,��,5.5,�L
2018/05/13,14:50,0.315,0.198,0.321,0.310,0.305,0.161,0.099,��쐼,4.4,�L
2018/05/13,15:00,0.311,0.198,0.323,0.307,0.301,0.162,0.100,��,3.9,�L
2018/05/13,15:10,0.314,0.199,0.321,0.308,0.303,0.161,0.100,��쐼,4.1,�L
2018/05/13,15:20,0.313,0.198,0.324,0.309,0.303,0.163,0.100,��쐼,3.2,�L
2018/05/13,15:30,0.313,0.199,0.321,0.308,0.303,0.162,0.099,��쐼,3.9,�L
2018/05/13,15:40,0.314,0.198,0.323,0.309,0.305,0.163,0.100,�쐼,3.5,�L
2018/05/13,15:50,0.311,0.198,0.321,0.308,0.300,0.161,0.100,�쐼,3.3,�L
2018/05/13,16:00,0.315,0.198,0.322,0.310,0.303,0.161,0.100,�쐼,3.0,�L
2018/05/13,16:10,0.311,0.199,0.324,0.308,0.302,0.162,0.100,��쐼,3.8,�L
2018/05/13,16:20,0.316,0.198,0.321,0.311,0.302,0.162,0.100,�쐼,3.9,�L
2018/05/13,16:30,0.311,0.199,0.322,0.307,0.303,0.164,0.100,��쐼,4.5,�L
2018/05/13,16:40,0.313,0.197,0.320,0.308,0.300,0.162,0.099,��쐼,5.7,�L
2018/05/13,16:50,0.312,0.198,0.322,0.307,0.301,0.163,0.100,��쐼,7.0,�L
2018/05/13,17:00,0.314,0.198,0.321,0.309,0.299,0.162,0.100,��쐼,6.9,�L
2018/05/13,17:10,0.312,0.198,0.321,0.306,0.303,0.162,0.100,�쐼,7.7,�L
2018/05/13,17:20,0.312,0.198,0.319,0.308,0.298,0.161,0.100,��쐼,6.8,�L
2018/05/13,17:30,0.312,0.198,0.322,0.304,0.302,0.162,0.099,��쐼,6.9,�L
2018/05/13,17:40,0.309,0.197,0.321,0.306,0.300,0.161,0.100,��쐼,9.0,�L
2018/05/13,17:50,0.310,0.197,0.320,0.305,0.301,0.161,0.098,��쐼,10.9,�L
2018/05/13,18:00,0.311,0.197,0.318,0.305,0.297,0.161,0.100,��,10.1,�L
2018/05/13,18:10,0.310,0.197,0.319,0.304,0.301,0.162,0.098,��,12.2,�L
2018/05/13,18:20,0.310,0.197,0.319,0.306,0.296,0.160,0.099,��,14.5,�L
2018/05/13,18:30,0.310,0.196,0.318,0.303,0.300,0.160,0.099,��,14.8,�L
2018/05/13,18:40,0.310,0.197,0.319,0.306,0.298,0.159,0.098,��쐼,13.1,�L
2018/05/13,18:50,0.307,0.196,0.319,0.304,0.298,0.160,0.098,��,11.7,�L
2018/05/13,19:00,0.309,0.197,0.319,0.305,0.300,0.159,0.098,��,12.0,�L
2018/05/13,19:10,0.307,0.195,0.317,0.305,0.296,0.160,0.098,��,11.2,�L
2018/05/13,19:20,0.310,0.195,0.317,0.304,0.299,0.159,0.098,��,10.3,�L
2018/05/13,19:30,0.307,0.196,0.316,0.303,0.296,0.159,0.098,��,9.8,�L
2018/05/13,19:40,0.309,0.195,0.316,0.302,0.297,0.160,0.097,��쐼,9.2,�L
2018/05/13,19:50,0.307,0.196,0.317,0.303,0.295,0.158,0.097,��,8.9,�L
2018/05/13,20:00,0.309,0.195,0.316,0.302,0.299,0.160,0.097,��쐼,8.4,�L
2018/05/13,20:10,0.309,0.195,0.316,0.303,0.294,0.159,0.097,��,8.7,�L
2018/05/13,20:20,0.309,0.195,0.315,0.303,0.298,0.160,0.098,��,7.3,�L
2018/05/13,20:30,0.309,0.196,0.317,0.303,0.297,0.160,0.099,��쐼,6.9,�L
2018/05/13,20:40,0.307,0.195,0.316,0.304,0.297,0.160,0.099,��쐼,5.9,�L
2018/05/13,20:50,0.309,0.196,0.316,0.302,0.297,0.160,0.099,��,5.6,�L
2018/05/13,21:00,0.307,0.197,0.317,0.304,0.297,0.160,0.099,��,4.5,�L
2018/05/13,21:10,0.309,0.195,0.315,0.301,0.297,0.160,0.100,��쐼,3.3,�L
2018/05/13,21:20,0.307,0.195,0.315,0.302,0.295,0.159,0.100,��,2.6,�L
2018/05/13,21:30,0.306,0.195,0.313,0.299,0.297,0.160,0.099,��,4.6,�L
2018/05/13,21:40,0.305,0.195,0.313,0.299,0.294,0.158,0.099,��,5.8,�L
2018/05/13,21:50,0.306,0.194,0.312,0.299,0.297,0.159,0.099,��,5.9,�L
2018/05/13,22:00,0.304,0.194,0.310,0.298,0.293,0.160,0.099,��,7.0,�L
2018/05/13,22:10,0.303,0.195,0.311,0.297,0.297,0.158,0.099,��,5.4,�L
2018/05/13,22:20,0.304,0.194,0.310,0.296,0.293,0.157,0.099,��쐼,4.7,�L
2018/05/13,22:30,0.302,0.195,0.310,0.299,0.297,0.159,0.101,��,5.7,�L
2018/05/13,22:40,0.306,0.196,0.310,0.297,0.296,0.159,0.101,��,8.1,�L
2018/05/13,22:50,0.304,0.196,0.312,0.299,0.298,0.160,0.101,-,CALM,�L
2018/05/13,23:00,0.306,0.195,0.310,0.299,0.298,0.159,0.101,��쐼,6.6,��
2018/05/13,23:10,0.304,0.196,0.311,0.299,0.296,0.159,0.099,��쐼,4.9,��
2018/05/13,23:20,0.305,0.194,0.310,0.299,0.297,0.158,0.099,�쐼,3.2,��
2018/05/13,23:30,0.302,0.192,0.311,0.297,0.297,0.157,0.098,���k��,4.4,�L
2018/05/13,23:40,0.303,0.194,0.308,0.297,0.295,0.158,0.098,�k�k��,7.4,��
2018/05/13,23:50,0.303,0.193,0.308,0.295,0.294,0.157,0.098,�k�k��,6.8,��
